TimeCDT,TemperatureF,Dew PointF,Humidity,Sea Level PressureIn,VisibilityMPH,Wind Direction,Wind SpeedMPH,Gust SpeedMPH,PrecipitationIn,Events,Conditions,WindDirDegrees,DateUTC
12:15 AM,84.6,62.2,47,29.84,10.0,Calm,Calm,-,N/A,,Clear,0,2013-09-01 05:15:00
12:35 AM,83.5,62.2,49,29.84,10.0,Calm,Calm,-,N/A,,Clear,0,2013-09-01 05:35:00
12:55 AM,84.0,61.7,47,29.85,10.0,Calm,Calm,-,N/A,,Clear,0,2013-09-01 05:55:00
1:15 AM,83.3,61.9,48,29.85,10.0,Calm,Calm,-,N/A,,Clear,0,2013-09-01 06:15:00
1:35 AM,81.5,61.9,51,29.85,10.0,Calm,Calm,-,N/A,,Clear,0,2013-09-01 06:35:00
1:55 AM,80.6,61.9,53,29.85,10.0,Calm,Calm,-,N/A,,Clear,0,2013-09-01 06:55:00
2:15 AM,80.6,61.9,53,29.84,10.0,Calm,Calm,-,N/A,,Clear,0,2013-09-01 07:15:00
2:35 AM,80.6,61.7,52,29.84,10.0,Calm,Calm,-,N/A,,Clear,0,2013-09-01 07:35:00
2:55 AM,79.9,61.7,54,29.84,10.0,Calm,Calm,-,N/A,,Clear,0,2013-09-01 07:55:00
3:15 AM,78.3,61.9,57,29.84,10.0,Calm,Calm,-,N/A,,Clear,0,2013-09-01 08:15:00
3:35 AM,76.5,60.8,58,29.85,10.0,Calm,Calm,-,N/A,,Clear,0,2013-09-01 08:35:00
3:55 AM,78.8,61.9,56,29.84,10.0,Calm,Calm,-,N/A,,Clear,0,2013-09-01 08:55:00
4:15 AM,77.9,62.1,58,29.85,10.0,Calm,Calm,-,N/A,,Clear,0,2013-09-01 09:15:00
4:35 AM,77.5,62.1,59,29.89,10.0,Calm,Calm,-,N/A,,Scattered Clouds,0,2013-09-01 09:35:00
4:55 AM,76.5,62.1,61,29.88,10.0,Calm,Calm,-,N/A,,Scattered Clouds,0,2013-09-01 09:55:00
5:15 AM,75.4,62.1,63,29.89,10.0,Calm,Calm,-,N/A,,Clear,0,2013-09-01 10:15:00
5:35 AM,75.4,62.2,64,29.89,10.0,Calm,Calm,-,N/A,,Clear,0,2013-09-01 10:35:00
5:55 AM,75.6,61.3,61,29.89,10.0,Calm,Calm,-,N/A,,Clear,0,2013-09-01 10:55:00
6:15 AM,74.7,61.2,63,29.89,10.0,Calm,Calm,-,N/A,,Clear,0,2013-09-01 11:15:00
6:35 AM,73.9,62.4,67,29.89,10.0,Calm,Calm,-,N/A,,Clear,0,2013-09-01 11:35:00
6:55 AM,72.7,62.2,70,29.88,10.0,Calm,Calm,-,N/A,,Clear,0,2013-09-01 11:55:00
7:15 AM,76.3,63.3,64,29.89,10.0,Calm,Calm,-,N/A,,Clear,0,2013-09-01 12:15:00
7:35 AM,74.5,64.4,71,29.89,10.0,Calm,Calm,-,N/A,,Clear,0,2013-09-01 12:35:00
7:55 AM,74.5,64.2,70,29.90,10.0,Calm,Calm,-,N/A,,Clear,0,2013-09-01 12:55:00
8:15 AM,77.7,66.4,68,29.91,10.0,Calm,Calm,-,N/A,,Clear,0,2013-09-01 13:15:00
8:35 AM,79.9,67.6,66,29.92,10.0,Calm,Calm,-,N/A,,Clear,0,2013-09-01 13:35:00
8:55 AM,82.2,67.8,62,29.93,10.0,Calm,Calm,-,N/A,,Clear,0,2013-09-01 13:55:00
9:15 AM,84.0,67.5,57,29.92,10.0,Calm,Calm,-,N/A,,Clear,0,2013-09-01 14:15:00
9:35 AM,84.7,67.6,56,29.93,10.0,Calm,Calm,-,N/A,,Clear,0,2013-09-01 14:35:00
9:55 AM,84.7,67.3,56,29.94,10.0,Calm,Calm,-,N/A,,Clear,0,2013-09-01 14:55:00
10:15 AM,84.9,68.2,57,29.95,10.0,Calm,Calm,-,N/A,,Clear,0,2013-09-01 15:15:00
10:35 AM,86.2,68.2,55,29.95,10.0,Calm,Calm,-,N/A,,Clear,0,2013-09-01 15:35:00
10:55 AM,86.5,68.5,55,29.97,10.0,Calm,Calm,-,N/A,,Clear,0,2013-09-01 15:55:00
11:15 AM,85.1,67.6,56,29.97,10.0,Calm,Calm,-,N/A,,Mostly Cloudy,0,2013-09-01 16:15:00
11:35 AM,79.7,70.0,72,29.97,10.0,Calm,Calm,-,N/A,Rain,Light Rain,0,2013-09-01 16:35:00
11:55 AM,78.8,69.6,73,29.99,10.0,Calm,Calm,-,N/A,,Mostly Cloudy,0,2013-09-01 16:55:00
12:15 PM,77.2,71.6,83,29.97,10.0,Calm,Calm,-,0.02,Rain,Light Rain,0,2013-09-01 17:15:00
12:35 PM,78.4,72.0,80,29.95,10.0,Calm,Calm,-,0.02,,Light Drizzle,0,2013-09-01 17:35:00
12:55 PM,80.6,72.3,76,29.93,10.0,Calm,Calm,-,0.02,,Clear,0,2013-09-01 17:55:00
1:15 PM,80.8,71.8,74,29.94,10.0,Calm,Calm,-,N/A,,Scattered Clouds,0,2013-09-01 18:15:00
1:35 PM,81.1,71.4,72,29.95,10.0,Calm,Calm,-,N/A,,Mostly Cloudy,0,2013-09-01 18:35:00
1:55 PM,80.8,71.6,73,29.97,10.0,Calm,Calm,-,N/A,,Mostly Cloudy,0,2013-09-01 18:55:00
2:15 PM,81.9,70.5,68,29.96,10.0,Calm,Calm,-,N/A,,Scattered Clouds,0,2013-09-01 19:15:00
2:35 PM,80.4,70.2,71,29.97,10.0,Calm,Calm,-,N/A,Rain,Light Rain,0,2013-09-01 19:35:00
2:55 PM,79.5,70.7,74,29.96,10.0,Calm,Calm,-,N/A,Rain,Light Rain,0,2013-09-01 19:55:00
3:15 PM,79.7,71.4,76,29.97,10.0,Calm,Calm,-,N/A,,Mostly Cloudy,0,2013-09-01 20:15:00
3:35 PM,78.8,70.9,77,29.97,10.0,Calm,Calm,-,N/A,,Overcast,0,2013-09-01 20:35:00
3:55 PM,78.8,71.4,78,29.96,10.0,Calm,Calm,-,N/A,,Mostly Cloudy,0,2013-09-01 20:55:00
4:15 PM,79.7,71.2,75,29.95,10.0,Calm,Calm,-,N/A,,Mostly Cloudy,0,2013-09-01 21:15:00
4:35 PM,79.7,70.7,74,29.95,10.0,Calm,Calm,-,N/A,,Overcast,0,2013-09-01 21:35:00
4:55 PM,80.6,68.2,66,29.95,10.0,Calm,Calm,-,N/A,,Overcast,0,2013-09-01 21:55:00
5:15 PM,81.7,68.5,64,29.94,10.0,Calm,Calm,-,N/A,,Mostly Cloudy,0,2013-09-01 22:15:00
5:35 PM,82.9,69.1,63,29.94,10.0,Calm,Calm,-,N/A,,Scattered Clouds,0,2013-09-01 22:35:00
5:55 PM,84.9,69.3,59,29.93,10.0,Calm,Calm,-,N/A,,Clear,0,2013-09-01 22:55:00
6:15 PM,85.5,68.0,56,29.92,10.0,Calm,Calm,-,N/A,,Clear,0,2013-09-01 23:15:00
6:35 PM,85.5,68.0,56,29.92,10.0,Calm,Calm,-,N/A,,Clear,0,2013-09-01 23:35:00
6:55 PM,85.3,68.5,57,29.92,10.0,Calm,Calm,-,N/A,,Clear,0,2013-09-01 23:55:00
7:15 PM,84.6,68.5,58,29.92,10.0,Calm,Calm,-,N/A,,Clear,0,2013-09-02 00:15:00
7:35 PM,83.3,69.6,63,29.92,10.0,Calm,Calm,-,N/A,,Clear,0,2013-09-02 00:35:00
7:55 PM,81.0,70.5,70,29.92,10.0,Calm,Calm,-,N/A,,Clear,0,2013-09-02 00:55:00
8:15 PM,79.5,70.2,73,29.94,10.0,Calm,Calm,-,N/A,,Clear,0,2013-09-02 01:15:00
8:35 PM,77.9,69.6,76,29.94,10.0,Calm,Calm,-,N/A,,Clear,0,2013-09-02 01:35:00
8:55 PM,76.1,69.6,80,29.95,10.0,Calm,Calm,-,N/A,,Clear,0,2013-09-02 01:55:00
9:15 PM,76.8,69.1,77,29.96,10.0,Calm,Calm,-,N/A,,Clear,0,2013-09-02 02:15:00
9:35 PM,73.6,69.3,86,29.97,10.0,Calm,Calm,-,N/A,,Clear,0,2013-09-02 02:35:00
9:55 PM,74.3,68.9,83,29.97,10.0,Calm,Calm,-,N/A,,Clear,0,2013-09-02 02:55:00
10:15 PM,73.0,68.5,86,29.98,10.0,Calm,Calm,-,N/A,,Clear,0,2013-09-02 03:15:00
10:35 PM,73.0,68.5,86,29.98,10.0,Calm,Calm,-,N/A,,Clear,0,2013-09-02 03:35:00
10:55 PM,72.0,68.2,88,29.98,10.0,Calm,Calm,-,N/A,,Clear,0,2013-09-02 03:55:00
11:15 PM,73.4,68.7,85,29.99,10.0,Calm,Calm,-,N/A,,Clear,0,2013-09-02 04:15:00
11:35 PM,73.9,68.9,84,29.99,10.0,Calm,Calm,-,N/A,,Clear,0,2013-09-02 04:35:00
11:55 PM,72.9,68.7,87,29.99,10.0,Calm,Calm,-,N/A,,Clear,0,2013-09-02 04:55:00